Location: Newark
(46.7000°N, 60.6000°W)
Time: 17:03:53
(UTC+00:00)

Altair - All Passes

Search period start: 21 October 2020 00:00
Search period end: 31 October 2020 00:00
Orbit: 1502 x 1682 km, 47.2° (Epoch: 20 October)

Date Brightness Start Highest point End Pass type
(mag) Time Alt. Az. Time Alt. Az. Time Alt. Az.
21 Oct - 08:43:27 10° SSE 08:48:36 16° SE 08:53:50 10° E visible
21 Oct - 10:42:33 10° SW 10:51:28 51° SE 11:00:44 10° ENE daylight
21 Oct - 12:46:12 10° WSW 12:55:47 88° SSE 13:05:47 10° E daylight
21 Oct - 14:51:04 10° W 15:00:51 88° S 15:10:58 10° ESE daylight
21 Oct - 16:55:52 10° WNW 17:05:20 53° SW 17:15:01 10° SE daylight
21 Oct - 19:02:18 10° W 19:08:28 18° SW 19:14:41 10° SSW daylight
22 Oct - 08:19:12 10° SSE 08:23:37 14° ESE 08:28:06 10° E visible
22 Oct - 10:17:35 10° SSW 10:26:22 48° SE 10:35:29 10° ENE daylight
22 Oct - 12:21:04 10° WSW 12:30:35 86° SSE 12:40:32 10° E daylight
22 Oct - 14:25:53 10° W 14:35:38 90° S 14:45:44 10° ESE daylight
22 Oct - 16:30:41 10° WNW 16:40:11 56° SSW 16:49:56 10° SE daylight
22 Oct - 18:36:48 10° W 18:43:25 20° SW 18:50:09 10° S daylight
23 Oct - 07:55:11 10° SE 07:58:39 13° ESE 08:02:07 10° E visible
23 Oct - 09:52:38 10° SSW 10:01:16 45° SE 10:10:14 10° ENE visible
23 Oct - 11:55:55 10° WSW 12:05:24 84° SSE 12:15:18 10° ENE daylight
23 Oct - 14:00:42 10° W 14:10:25 89° NNE 14:20:29 10° E daylight
23 Oct - 16:05:29 10° WNW 16:15:02 59° SSW 16:24:51 10° SE daylight
23 Oct - 18:11:20 10° W 18:18:23 22° SW 18:25:32 10° S daylight
24 Oct - 07:31:43 10° SE 07:33:40 11° ESE 07:35:37 10° ESE visible
24 Oct - 09:27:42 10° SSW 09:36:12 42° SE 09:44:58 10° ENE visible
24 Oct - 11:30:47 10° WSW 11:40:13 82° SSE 11:50:03 10° ENE daylight
24 Oct - 13:35:32 10° W 13:45:11 88° N 13:55:14 10° E daylight
24 Oct - 15:40:18 10° WNW 15:49:52 62° SSW 15:59:44 10° SE daylight
24 Oct - 17:45:56 10° W 17:53:20 24° SW 18:00:51 10° S daylight
25 Oct - 09:02:48 10° SSW 09:11:07 39° SE 09:19:42 10° ENE visible
25 Oct - 11:05:39 10° WSW 11:15:02 80° SSE 11:24:50 10° ENE daylight
25 Oct - 13:10:21 10° W 13:19:59 88° N 13:30:00 10° E daylight
25 Oct - 15:15:07 10° WNW 15:24:43 65° SSW 15:34:37 10° SE daylight
25 Oct - 17:20:35 10° W 17:28:16 27° SW 17:36:07 10° S daylight
26 Oct - 08:37:56 10° SSW 08:46:04 36° SE 08:54:25 10° ENE visible
26 Oct - 10:40:32 10° WSW 10:49:52 77° SSE 10:59:36 10° ENE daylight
26 Oct - 12:45:10 10° W 12:54:46 87° N 13:04:45 10° E daylight
26 Oct - 14:49:57 10° WNW 14:59:33 68° SSW 15:09:28 10° SE daylight
26 Oct - 16:55:15 10° WNW 17:03:12 29° SW 17:11:19 10° S daylight
27 Oct - 08:13:07 10° SSW 08:21:01 33° SE 08:29:08 10° ENE visible
27 Oct - 10:15:25 10° WSW 10:24:42 74° SSE 10:34:23 10° ENE daylight
27 Oct - 12:20:00 10° W 12:29:33 87° N 12:39:30 10° E daylight
27 Oct - 14:24:47 10° WNW 14:34:22 70° SSW 14:44:19 10° SE daylight
27 Oct - 16:29:57 10° WNW 16:38:07 31° SW 16:46:29 10° S daylight
28 Oct - 07:48:18 10° S 07:55:58 31° SE 08:03:49 10° ENE visible
28 Oct - 09:50:19 10° WSW 09:59:33 71° SSE 10:09:09 10° ENE visible
28 Oct - 11:54:49 10° W 12:04:20 87° N 12:14:15 10° E daylight
28 Oct - 13:59:37 10° WNW 14:09:12 73° SSW 14:19:09 10° ESE daylight
28 Oct - 16:04:40 10° WNW 16:13:03 33° SW 16:21:37 10° SSE daylight
29 Oct - 07:23:32 10° S 07:30:56 28° SE 07:38:30 10° E visible
29 Oct - 09:25:14 10° SW 09:34:25 68° SSE 09:43:56 10° ENE visible
29 Oct - 11:29:39 10° W 11:39:07 87° N 11:49:00 10° E daylight
29 Oct - 13:34:27 10° WNW 13:44:01 76° SSW 13:53:58 10° ESE daylight
29 Oct - 15:39:25 10° WNW 15:47:57 36° SW 15:56:44 10° SSE daylight
30 Oct - 06:58:48 10° S 07:05:55 26° SE 07:13:09 10° E visible
30 Oct - 09:00:10 10° SW 09:09:16 65° SSE 09:18:43 10° ENE visible
30 Oct - 11:04:29 10° W 11:13:56 87° N 11:23:45 10° E daylight
30 Oct - 13:09:17 10° WNW 13:18:50 78° SSW 13:28:46 10° ESE daylight
30 Oct - 15:14:11 10° WNW 15:22:52 39° SW 15:31:48 10° SSE daylight
